Orbital Elements
Epoch 2023 Feb. 25.0 TT = JDT 2460000.5
T 2023 Apr. 11.11381 TT Rudenko
q 0.8320728 (2000.0) P Q
n 0.22232959 Peri. 222.95283 +0.74652278 +0.65804449
a 2.6985960 Node 95.62414 -0.58052068 +0.71643172
e 0.6916646 Incl. 5.67404 -0.32511455 +0.23173916
P 4.43
>From 787 observations 2005 May 6-2023 Mar. 16, mean residual 0".8.
Nongravitational parameters A1 = +0.04, A2 = -0.0078.
|